| time (UTC) | temp C | wind direction | speed KPH | gust KPH | rain 1hr cm | rain 24hr cm | rain mn cm | humidity % | barometer mb |
| 20260503173030 | 16 | 201 | 4.8 | 16.1 | 0.00 | 0.00 | 0.00 | 42 | 1019.9 |
| 20260503171526 | 15 | 157 | 4.8 | 12.9 | 0.00 | 0.00 | 0.00 | 43 | 1020.2 |
| 20260503081536 | 6 | 0 | 0.0 | 1.6 | 0.00 | 0.00 | 0.00 | 70 | 1018.4 |
| 20260503071529 | 6 | 0 | 0.0 | 17.7 | 0.00 | 0.00 | 0.00 | 67 | 1017.9 |
| 20260503054544 | 7 | 0 | 0.0 | 0.0 | 0.00 | 0.00 | 0.00 | 64 | 1017.6 |
| 20260503053031 | 7 | 0 | 0.0 | 0.0 | 0.00 | 0.00 | 0.00 | 64 | 1017.6 |
| 20260503051528 | 7 | 0 | 0.0 | 0.0 | 0.00 | 0.00 | 0.00 | 64 | 1017.6 |
| 20260503050033 | 7 | 0 | 0.0 | 0.0 | 0.00 | 0.00 | 0.00 | 62 | 1017.5 |
| 20260503044538 | 8 | 213 | 0.0 | 3.2 | 0.00 | 0.00 | 0.00 | 61 | 1017.4 |
| 20260503043036 | 8 | 0 | 0.0 | 0.0 | 0.00 | 0.00 | 0.00 | 61 | 1017.3 |
| 20260503041530 | 8 | 0 | 0.0 | 4.8 | 0.00 | 0.00 | 0.00 | 60 | 1017.2 |
| 20260503040032 | 8 | 213 | 0.0 | 4.8 | 0.00 | 0.00 | 0.00 | 59 | 1017.0 |
| 20260503034528 | 8 | 0 | 0.0 | 4.8 | 0.00 | 0.00 | 0.00 | 59 | 1016.7 |
| 20260503033031 | 8 | 213 | 0.0 | 4.8 | 0.00 | 0.00 | 0.00 | 60 | 1016.7 |
| 20260503031531 | 8 | 213 | 1.6 | 4.8 | 0.00 | 0.00 | 0.00 | 59 | 1016.7 |
| 20260503030034 | 9 | 213 | 1.6 | 4.8 | 0.00 | 0.00 | 0.00 | 57 | 1016.6 |
| 20260503024533 | 9 | 0 | 1.6 | 6.4 | 0.00 | 0.00 | 0.00 | 55 | 1016.6 |
| 20260503023028 | 10 | 0 | 0.0 | 6.4 | 0.00 | 0.00 | 0.00 | 56 | 1016.3 |
| 20260503021529 | 10 | 195 | 3.2 | 12.9 | 0.00 | 0.00 | 0.00 | 54 | 1016.2 |
| 20260503020032 | 10 | 198 | 3.2 | 9.7 | 0.00 | 0.00 | 0.00 | 53 | 1016.1 |
| 20260503014530 | 10 | 216 | 3.2 | 11.3 | 0.00 | 0.00 | 0.00 | 53 | 1015.9 |
| 20260503013037 | 11 | 0 | 0.0 | 4.8 | 0.00 | 0.00 | 0.00 | 53 | 1015.6 |
| 20260503011528 | 11 | 259 | 1.6 | 4.8 | 0.00 | 0.00 | 0.00 | 50 | 1015.4 |
| 20260503010028 | 11 | 0 | 3.2 | 9.7 | 0.00 | 0.00 | 0.00 | 50 | 1015.1 |
| 20260503004535 | 12 | 277 | 3.2 | 12.9 | 0.00 | 0.00 | 0.00 | 48 | 1014.9 |
| 20260503003042 | 12 | 213 | 0.0 | 12.9 | 0.00 | 0.00 | 0.00 | 48 | 1014.6 |
| 20260503001540 | 13 | 0 | 3.2 | 16.1 | 0.00 | 0.00 | 0.00 | 45 | 1014.5 |
| 20260503000034 | 13 | 155 | 3.2 | 20.9 | 0.00 | 0.00 | 0.00 | 44 | 1014.3 |
| 20260502234538 | 13 | 251 | 6.4 | 19.3 | 0.00 | 0.00 | 0.00 | 43 | 1014.0 |
| 20260502233038 | 13 | 331 | 4.8 | 20.9 | 0.00 | 0.00 | 0.00 | 43 | 1013.8 |
| 20260502231529 | 13 | 291 | 9.7 | 19.3 | 0.00 | 0.00 | 0.00 | 42 | 1013.5 |
| 20260502230034 | 14 | 178 | 1.6 | 20.9 | 0.00 | 0.00 | 0.00 | 43 | 1013.3 |
| 20260502224528 | 15 | 248 | 4.8 | 16.1 | 0.00 | 0.00 | 0.00 | 42 | 1013.3 |
| 20260502223039 | 15 | 281 | 4.8 | 19.3 | 0.00 | 0.00 | 0.00 | 40 | 1013.2 |
| 20260502221529 | 15 | 220 | 4.8 | 14.5 | 0.00 | 0.00 | 0.00 | 39 | 1013.1 |
| 20260502220030 | 16 | 167 | 3.2 | 17.7 | 0.00 | 0.00 | 0.00 | 40 | 1012.9 |
| 20260502214530 | 16 | 216 | 6.4 | 25.7 | 0.00 | 0.00 | 0.00 | 39 | 1012.6 |
| 20260502213028 | 17 | 225 | 3.2 | 12.9 | 0.00 | 0.00 | 0.00 | 36 | 1012.5 |
| 20260502211532 | 17 | 272 | 6.4 | 19.3 | 0.00 | 0.00 | 0.00 | 36 | 1012.3 |
| 20260502210034 | 17 | 259 | 4.8 | 16.1 | 0.00 | 0.00 | 0.00 | 35 | 1012.3 |
| 20260502204527 | 17 | 288 | 4.8 | 17.7 | 0.00 | 0.00 | 0.00 | 36 | 1012.4 |
| 20260502203027 | 17 | 277 | 3.2 | 12.9 | 0.00 | 0.00 | 0.00 | 39 | 1012.4 |
| 20260502201530 | 16 | 215 | 1.6 | 8.0 | 0.00 | 0.00 | 0.00 | 42 | 1012.4 |
| 20260502200030 | 16 | 196 | 1.6 | 8.0 | 0.00 | 0.00 | 0.00 | 42 | 1012.6 |
| 20260502194532 | 16 | 0 | 1.6 | 6.4 | 0.00 | 0.00 | 0.00 | 50 | 1012.7 |
| 20260502193033 | 16 | 0 | 1.6 | 9.7 | 0.00 | 0.00 | 0.00 | 52 | 1012.9 |
| 20260502191530 | 16 | 205 | 3.2 | 11.3 | 0.00 | 0.00 | 0.00 | 50 | 1012.9 |
| 20260502190041 | 16 | 17 | 1.6 | 6.4 | 0.00 | 0.00 | 0.00 | 51 | 1012.9 |
| 20260502184530 | 16 | 50 | 3.2 | 9.7 | 0.00 | 0.00 | 0.00 | 56 | 1013.0 |
| 20260502183028 | 15 | 360 | 1.6 | 9.7 | 0.00 | 0.00 | 0.00 | 54 | 1013.3 |
| 20260502181536 | 15 | 342 | 1.6 | 8.0 | 0.00 | 0.00 | 0.00 | 55 | 1013.4 |